Weather History for West Palm Beach, FL

Change the Weather History Date:

Thursday, August 29, 2013

  Actual Average Record
Temperature  
Mean Temperature 84 °F 82 °F  
Max Temperature 91 °F 90 °F 96 °F (1932)
Min Temperature 76 °F 76 °F 70 °F (1927)
Degree Days  
Heating Degree Days 0 0  
Month to date heating degree days 0 0  
Since 1 June heating degree days 0 0  
Since 1 July heating degree days 0 0  
Cooling Degree Days 19 18  
Month to date cooling degree days 596 522  
Year to date cooling degree days 2846 2670  
Since 1 June cooling degree days 1661 1561  
Growing Degree Days 33 (Base 50)    
Moisture  
Dew Point 72 °F    
Average Humidity 67    
Maximum Humidity 82    
Minimum Humidity 52    
Precipitation  
Precipitation 0.00 in 0.27 in 2.64 in (1946)
Month to date precipitation 4.10 7.40  
Year to date precipitation 47.62 40.17  
Snow  
Snow 0.00 in - - ()
Month to date snowfall 0.0  
Since 1 June snowfall 0.0  
Since 1 July snowfall 0.0  
Snow Depth 0.00 in    
Sea Level Pressure  
Sea Level Pressure 29.99 in    
Wind  
Wind Speed 6 mph (East)    
Max Wind Speed 6 mph    
Max Gust Speed 6 mph    
Visibility 10 miles    
Events      
T = Trace of Precipitation, MM = Missing Value Source: NWS Daily Summary

Daily Weather History Graph

Daily Weather History Graph

Search for Another Location

Airport:

Trip Planner

Search our weather history database for the weather conditions in past years. The results will help you decide how hot, cold, wet, or windy it might be!

Date:

Astronomy

Aug. 29, 2013 Rise Set
Actual Time 6:58 AM EDT 7:43 PM EDT
Civil Twilight 6:35 AM EDT 8:06 PM EDT
Nautical Twilight 6:07 AM EDT 8:34 PM EDT
Astronomical Twilight 5:38 AM EDT 9:02 PM EDT
Moon 1:05 AM EDT (8/29) 2:54 PM EDT (8/29)
Length of Visible Light 13h 31m
Length of Day
12h 44m
Last Quarter, 38% of the Moon is Illuminated
Aug 29
Last Quarter
Sep 5
New
Sep 12
First Quarter
Sep 19
Full
Sep 26
Last Quarter

Hourly Weather History & Observations

Time (EDT) Temp. Heat Index Dew Point Humidity Pressure Visibility Wind Dir Wind Speed Gust Speed Precip Events Conditions
12:53 AM 77.0 °F - 70.0 °F 79% 30.02 in 10.0 mi WNW 3.5 mph - N/A   Scattered Clouds
1:53 AM 77.0 °F - 71.1 °F 82% 30.01 in 10.0 mi NNW 3.5 mph - N/A   Scattered Clouds
2:53 AM 75.9 °F - 70.0 °F 82% 30.00 in 10.0 mi NNW 3.5 mph - N/A   Scattered Clouds
3:53 AM 75.9 °F - 70.0 °F 82% 29.99 in 10.0 mi Calm Calm - N/A   Scattered Clouds
4:53 AM 77.0 °F - 71.1 °F 82% 29.99 in 10.0 mi North 3.5 mph - N/A   Scattered Clouds
5:53 AM 75.9 °F - 70.0 °F 82% 29.99 in 10.0 mi North 3.5 mph - N/A   Partly Cloudy
6:53 AM 77.0 °F - 70.0 °F 79% 29.99 in 10.0 mi North 4.6 mph - N/A   Scattered Clouds
7:53 AM 80.1 °F 83.8 °F 72.0 °F 76% 30.01 in 10.0 mi Calm Calm - N/A   Scattered Clouds
8:53 AM 84.9 °F 91.4 °F 73.0 °F 67% 30.01 in 10.0 mi NE 6.9 mph - N/A   Scattered Clouds
9:53 AM 86.0 °F 91.5 °F 71.1 °F 61% 30.02 in 10.0 mi Calm Calm - N/A   Scattered Clouds
10:53 AM 88.0 °F 94.7 °F 72.0 °F 59% 30.02 in 10.0 mi Variable 3.5 mph - N/A   Scattered Clouds
11:53 AM 88.0 °F 94.7 °F 72.0 °F 59% 30.02 in 10.0 mi ENE 8.1 mph - N/A   Scattered Clouds
12:53 PM 90.0 °F 96.9 °F 72.0 °F 55% 30.02 in 10.0 mi East 10.4 mph - N/A   Scattered Clouds
1:53 PM 89.1 °F 94.1 °F 70.0 °F 53% 29.99 in 10.0 mi East 10.4 mph - N/A   Scattered Clouds
2:53 PM 90.0 °F 95.4 °F 70.0 °F 52% 29.97 in 10.0 mi East 10.4 mph - N/A   Scattered Clouds
3:53 PM 90.0 °F 96.9 °F 72.0 °F 55% 29.95 in 10.0 mi ESE 10.4 mph - N/A   Scattered Clouds
4:53 PM 90.0 °F 96.9 °F 72.0 °F 55% 29.95 in 10.0 mi East 13.8 mph 21.9 mph N/A   Scattered Clouds
5:53 PM 88.0 °F 94.7 °F 72.0 °F 59% 29.95 in 10.0 mi ESE 12.7 mph - N/A   Scattered Clouds
6:53 PM 86.0 °F 93.0 °F 73.0 °F 65% 29.94 in 10.0 mi SE 13.8 mph - N/A   Scattered Clouds
7:53 PM 84.9 °F 90.7 °F 72.0 °F 65% 29.94 in 10.0 mi SE 9.2 mph - N/A   Scattered Clouds
8:53 PM 84.9 °F 91.4 °F 73.0 °F 67% 29.96 in 10.0 mi SE 3.5 mph - N/A   Scattered Clouds
9:53 PM 84.0 °F 90.2 °F 73.0 °F 69% 29.98 in 10.0 mi SE 5.8 mph - N/A   Scattered Clouds
10:53 PM 84.0 °F 90.2 °F 73.0 °F 69% 29.99 in 10.0 mi SSE 4.6 mph - N/A   Scattered Clouds
11:53 PM 84.0 °F 90.2 °F 73.0 °F 69% 29.98 in 10.0 mi South 3.5 mph - N/A   Scattered Clouds